Location: Bruderhein
(53.8035°N, 112.9265°W)
Time: 08:37:14
(UTC+00:00)

TIGRISAT - Pass Details

Date: 09 April 2023
Orbit: 599 x 682 km, 97.7° (Epoch: 03 June)

Event Time Altitude Azimuth Distance (km) Brightness Sun altitude
Rises 11:12:46 0° 137° (SE) 2,986 ? -13.3°
Reaches altitude 10° 11:15:07 10° 128° (SE) 2,090 ? -13.0°
Maximum altitude 11:19:15 35° 64° (ENE) 1,100 ? -12.5°
Drops below altitude 10° 11:23:28 10° 360° (N) 2,135 ? -12.0°
Sets 11:25:52 0° 351° (N) 3,060 ? -11.7°
